DW1958 Weather Reports


Display with metric or nautical units.
time (UTC)temp
F
wind
direction
speed
MPH
gust
MPH
rain 1hr
in
rain 24hr
in
rain mn
in
humidity
%
barometer
mb
20260507025123 42 246 3.0 13.0 0.00 0.01 0.01 53 1009.8
20260507024224 42 234 1.0 9.0 0.00 0.01 0.01 52 1009.7
20260507023323 42 240 1.0 5.0 0.00 0.01 0.01 54 1009.7
20260507022423 42 252 1.0 7.0 0.00 0.01 0.01 54 1009.6
20260507021523 42 250 2.0 9.0 0.00 0.01 0.01 54 1009.7
20260507020623 42 268 1.0 11.0 0.00 0.01 0.01 54 1009.6
20260507015723 42 236 3.0 11.0 0.00 0.01 0.01 52 1009.7
20260507014823 42 254 4.0 13.0 0.00 0.01 0.01 52 1009.6
20260507013923 42 237 4.0 12.0 0.00 0.01 0.01 54 1009.6
20260507013023 42 238 6.0 13.0 0.00 0.01 0.01 53 1009.6
20260507010323 43 255 1.0 10.0 0.00 0.01 0.01 53 1009.4
20260507005423 43 243 3.0 12.0 0.00 0.01 0.01 52 1009.4
20260507001823 43 247 2.0 7.0 0.00 0.01 0.01 54 1009.4
20260507000923 43 241 3.0 11.0 0.00 0.01 0.01 53 1009.4
20260507000023 43 221 5.0 13.0 0.00 0.01 0.01 53 1009.4
20260506234223 43 231 3.0 12.0 0.00 0.01 0.01 53 1009.3
20260506233323 43 244 4.0 11.0 0.00 0.01 0.01 53 1009.2
20260506232423 43 258 3.0 14.0 0.00 0.01 0.01 51 1009.2
20260506231523 44 236 3.0 11.0 0.00 0.01 0.01 52 1009.3
20260506230623 44 233 4.0 12.0 0.00 0.01 0.01 48 1009.2
20260506225723 43 225 3.0 12.0 0.00 0.01 0.01 53 1009.2
20260506224823 43 236 5.0 16.0 0.00 0.01 0.01 52 1009.2
20260506223023 43 241 2.0 11.0 0.00 0.01 0.01 54 1009.2
20260506222123 44 248 3.0 10.0 0.00 0.01 0.01 56 1009.3
20260506221223 44 269 2.0 13.0 0.00 0.01 0.01 55 1009.2
20260506220323 44 258 2.0 12.0 0.00 0.01 0.01 59 1009.2
20260506215424 43 234 2.0 12.0 0.00 0.01 0.01 58 1009.3
20260506214523 43 235 3.0 13.0 0.00 0.02 0.01 56 1009.3
20260506213623 42 248 4.0 14.0 0.00 0.02 0.01 59 1009.3
20260506211823 41 246 2.0 10.0 0.00 0.02 0.01 63 1009.2
20260506205123 41 242 6.0 13.0 0.00 0.02 0.01 64 1009.2
20260506204223 41 253 4.0 14.0 0.00 0.02 0.01 65 1009.1
20260506203323 40 239 3.0 17.0 0.00 0.02 0.01 66 1009.1
20260506201523 39 241 6.0 13.0 0.00 0.02 0.01 69 1009.1
20260506200624 39 240 4.0 14.0 0.00 0.02 0.01 70 1009.2
20260506195723 39 241 5.0 12.0 0.00 0.02 0.01 71 1009.1
20260506194824 39 244 4.0 12.0 0.00 0.02 0.01 75 1009.0
20260506193023 38 239 5.0 12.0 0.00 0.02 0.01 79 1008.9
20260506191224 37 239 4.0 15.0 0.00 0.02 0.01 84 1008.8
20260506190323 36 237 4.0 15.0 0.00 0.02 0.01 86 1008.9
20260506185423 36 242 3.0 15.0 0.00 0.02 0.01 88 1008.7
20260506183623 35 241 3.0 9.0 0.00 0.02 0.01 91 1008.6
20260506182723 35 231 2.0 9.0 0.00 0.02 0.01 91 1008.7
20260506181823 35 236 3.0 11.0 0.00 0.03 0.01 91 1008.6
20260506180923 35 241 3.0 10.0 0.01 0.03 0.01 91 1008.6
20260506180023 35 231 2.0 7.0 0.01 0.03 0.01 91 1008.5
20260506175123 35 236 2.0 9.0 0.01 0.03 0.01 91 1008.4
20260506174223 35 240 4.0 10.0 0.01 0.03 0.01 91 1008.4
20260506173323 35 242 2.0 10.0 0.01 0.03 0.01 91 1008.3
20260506172424 35 246 2.0 7.0 0.01 0.03 0.01 91 1008.2
20260506171523 35 238 2.0 10.0 0.01 0.03 0.01 91 1008.2
20260506170624 35 242 3.0 11.0 0.00 0.02 0.00 91 1008.2
20260506165724 35 242 3.0 11.0 0.00 0.02 0.00 91 1008.1
20260506164824 35 233 2.0 11.0 0.00 0.02 0.00 92 1008.0
20260506163923 34 233 2.0 7.0 0.00 0.02 0.00 92 1007.9
20260506163023 34 238 1.0 9.0 0.00 0.02 0.00 92 1007.8
20260506162123 34 237 3.0 9.0 0.00 0.02 0.00 91 1007.8
20260506161223 34 231 2.0 11.0 0.00 0.02 0.00 91 1007.7
20260506155424 34 232 3.0 11.0 0.00 0.02 0.00 90 1007.6
20260506154524 34 231 3.0 11.0 0.00 0.02 0.00 90 1007.5
20260506153623 34 232 3.0 11.0 0.00 0.02 0.00 90 1007.4
20260506152723 34 227 3.0 10.0 0.00 0.02 0.00 90 1007.3
20260506151824 34 242 3.0 11.0 0.00 0.02 0.00 90 1007.2
20260506145123 34 240 2.0 9.0 0.00 0.02 0.00 90 1006.9
20260506144223 34 237 3.0 12.0 0.00 0.02 0.00 90 1006.8
20260506143323 34 237 3.0 10.0 0.00 0.02 0.00 91 1006.7
20260506142424 35 235 1.0 8.0 0.00 0.02 0.00 91 1006.6
20260506140623 35 232 2.0 9.0 0.00 0.02 0.00 91 1006.6
20260506135723 35 233 2.0 9.0 0.00 0.02 0.00 92 1006.5
20260506134824 35 244 1.0 8.0 0.00 0.02 0.00 92 1006.4
20260506133923 35 232 3.0 7.0 0.00 0.02 0.00 92 1006.3
20260506133023 35 233 2.0 7.0 0.00 0.02 0.00 92 1006.3
20260506132123 36 237 1.0 7.0 0.00 0.02 0.00 92 1006.2
20260506131223 36 231 2.0 11.0 0.00 0.02 0.00 92 1006.0
20260506130324 36 229 3.0 9.0 0.00 0.02 0.00 92 1005.9
20260506124523 36 237 2.0 11.0 0.00 0.02 0.00 92 1005.8
20260506123624 36 234 3.0 13.0 0.00 0.02 0.00 92 1005.7
20260506122724 36 232 3.0 13.0 0.00 0.02 0.00 93 1005.5
20260506121824 37 229 2.0 12.0 0.00 0.02 0.00 93 1005.5
20260506120924 37 223 1.0 4.0 0.00 0.02 0.00 93 1005.3
20260506120024 37 222 1.0 5.0 0.00 0.02 0.00 93 1005.2
20260506115123 37 0 0.0 5.0 0.00 0.02 0.00 92 1005.1
20260506114223 37 230 1.0 6.0 0.00 0.02 0.00 92 1005.0
20260506113323 37 235 2.0 6.0 0.00 0.02 0.00 92 1005.0
20260506112423 37 234 1.0 6.0 0.00 0.02 0.00 92 1004.9
20260506111524 38 239 1.0 5.0 0.00 0.02 0.00 92 1004.7
20260506110623 38 236 2.0 7.0 0.00 0.02 0.00 92 1004.7
20260506105724 38 236 3.0 10.0 0.00 0.02 0.00 92 1004.6
20260506103924 38 229 1.0 6.0 0.00 0.02 0.00 91 1004.3
20260506103024 38 227 2.0 5.0 0.00 0.02 0.00 91 1004.2
20260506102124 38 227 1.0 6.0 0.00 0.02 0.00 91 1004.2
20260506101223 38 226 1.0 7.0 0.00 0.02 0.00 91 1004.0
20260506100324 38 223 1.0 5.0 0.00 0.02 0.00 91 1003.9
20260506095424 38 221 1.0 6.0 0.00 0.02 0.00 91 1003.7
20260506094524 38 0 0.0 1.0 0.00 0.02 0.00 90 1003.7
20260506093624 38 0 0.0 5.0 0.00 0.02 0.00 90 1003.6
20260506091824 39 211 2.0 6.0 0.00 0.02 0.00 91 1003.4
20260506090924 38 216 1.0 5.0 0.00 0.02 0.00 90 1003.4
20260506085124 39 0 0.0 1.0 0.00 0.02 0.00 90 1003.2
20260506084224 39 0 0.0 2.0 0.00 0.02 0.00 90 1003.1
20260506083324 39 0 0.0 2.0 0.00 0.02 0.00 90 1003.0
20260506081524 39 0 0.0 0.0 0.00 0.02 0.00 89 1002.8
20260506080624 39 0 0.0 0.0 0.00 0.02 0.00 88 1002.6
20260506073024 40 261 1.0 7.0 0.00 0.02 0.02 87 1002.3
20260506072124 40 275 2.0 7.0 0.00 0.02 0.02 87 1002.2
20260506070324 41 249 2.0 10.0 0.00 0.02 0.02 87 1002.1
20260506060924 41 270 2.0 9.0 0.00 0.02 0.02 88 1001.5
20260506050624 42 247 2.0 9.0 0.00 0.02 0.02 85 1001.1
20260506044824 42 0 0.0 7.0 0.00 0.02 0.02 86 1000.9
20260506043924 42 275 1.0 13.0 0.00 0.02 0.02 86 1000.8
20260506042124 43 267 3.0 14.0 0.00 0.02 0.02 84 1000.7
20260506041224 43 249 6.0 19.0 0.00 0.02 0.02 82 1000.9
20260506040324 44 247 2.0 16.0 0.00 0.02 0.02 80 1000.9
20260506035424 44 245 3.0 14.0 0.00 0.02 0.02 78 1000.8
20260506034524 45 251 6.0 19.0 0.00 0.02 0.02 76 1000.7
20260506032724 46 242 4.0 16.0 0.00 0.02 0.02 74 1000.6
20260506031824 47 246 8.0 20.0 0.00 0.02 0.02 72 1000.3
20260506030026 48 246 6.0 19.0 0.00 0.02 0.02 71 999.9